Volver al catálogo

CZ-6A DEB

ActivoPO
NORAD 60659·DEBRIS·🇨🇳 China

Lanzado Aug 6, 2024 desde Taiyuan Satellite Launch Center

Loading…

Próximos Pases (próximas 24 horas)

TLE

ActualizadoSource: Space-Track

Época: Sep 14, 2026, 23:03 UTC

1 60659U 24140BL  26257.96071565  .00000665  00000-0  29516-3 0  9991
2 60659  88.9996 264.8204 0040954 245.0742 114.6191 14.21495331108914

Sigue CZ-6A DEB en tiempo real con AllMySat

Download on the App Store